Terminal Aerodrome Forecast
Issued by NWS

Home | Current Version | Previous Version | Text Only | Print | Product List | Glossary On
Versions: 1 2 3 4 5 6 7 8 9 10 11 12 13 14
000
FTUS45 KVEF 230300 AAA
TAFBIH
TAF AMD
KBIH 230306Z 2303/2324 34012G20KT P6SM SKC
     FM230600 34008KT P6SM SKC
     FM232300 14012G20KT P6SM SKC=

USA.gov is the U.S. government's official web portal to all federal, state and local government web resources and services.